#timestamp,LO_Frequency,Hit,StdDev 
1605510015.3,286046998.3,N
1605510035.1,286046996.7,N
1605510055.8,286046997.2,N
1605510075.7,286046995.4,Y
1605510095.5,286046999.1,P
1605510115.4,286046999.5,N
1605510135.2,286046997.0,P
1605510155.0,286046999.2,N
1605510155.9,286046999.2,N
1605510175.8,286046999.3,N
1605510195.6,286046998.5,N
1605510215.4,286046999.3,N
1605510235.3,286046998.9,N
1605510255.1,286046996.9,Y
1605510275.9,286046998.5,P
1605510295.7,286047000.2,N
1605510315.5,286047002.7,P
1605510335.4,286047000.8,N
1605510355.2,286047000.9,N
1605510375.0,286047000.6,N
1605510376.0,286047000.6,N
1605510395.8,286047000.0,N
1605510415.6,286047000.7,N
1605510435.5,286047000.3,N
1605510455.3,286047000.8,N
1605510475.1,286047001.0,N
1605510495.9,286047000.7,N
1605510515.7,286047001.0,N
1605510535.5,286046999.5,N
1605510555.4,286046998.3,N
1605510575.2,286046998.2,N
1605510595.1,286046999.0,N
1605510596.0,286046999.0,N
1605510615.8,286046998.7,N
1605510635.6,286046999.5,N
1605510655.5,286046996.9,N
1605510675.3,286046997.5,N
1605510695.1,286046997.0,N
1605510715.9,286046999.2,N
1605510735.7,286046996.5,N
1605510755.6,286046997.6,N
1605510775.4,286046994.9,Y
1605510795.2,286046997.6,P
1605510815.1,286046997.3,N
1605510816.0,286046997.3,N
1605510835.8,286046995.1,Y
1605510855.7,286046996.9,P
1605510875.5,286046997.4,P
1605510895.3,286046996.9,P
1605510915.2,286046997.7,Y
1605510935.0,286046998.8,P
1605510935.9,286046998.8,N
1605510955.7,286046996.6,P
1605510975.6,286046999.1,N
1605510995.4,286046996.8,Y
1605511015.3,286047001.1,P
1605511035.1,286047000.8,N
1605511055.8,286046998.2,N
1605511075.7,286047000.9,N
1605511095.5,286047000.3,N
1605511115.3,286047000.9,N
1605511135.2,286047000.4,N
1605511155.0,286046998.9,N
1605511155.9,286046998.9,N
1605511175.8,286046999.1,N
1605511195.6,286046996.6,Y
1605511215.4,286046997.0,P
1605511235.3,286046996.7,N
1605511255.1,286046997.7,N
1605511275.8,286046997.9,N
1605511295.7,286046997.6,N
1605511315.5,286046996.7,Y
1605511335.4,286047000.8,P
1605511355.2,286047000.3,N
1605511375.0,286047001.1,N
1605511375.9,286047001.1,N
1605511395.8,286047000.9,N
1605511415.6,286046999.9,N
1605511435.5,286047001.9,N
1605511455.3,286047004.3,Y
1605511475.1,286047001.6,P
1605511495.9,286047004.4,P
1605511515.7,286047001.6,N
1605511535.5,286047001.6,N
1605511555.4,286047002.0,N
1605511575.2,286047002.3,N
1605511595.1,286047002.8,N
1605511596.0,286047002.8,N
1605511615.8,286047000.9,N
1605511635.6,286047000.9,N
1605511655.5,286047001.1,N
1605511675.3,286046998.5,N
1605511695.1,286047001.2,N
1605511715.9,286046999.7,N
1605511735.7,286047000.0,N
1605511755.6,286047002.1,N
1605511775.4,286047000.1,N
1605511795.2,286047002.7,N
1605511815.1,286047001.1,N
1605511816.0,286047001.1,N
1605511835.8,286046998.4,N
1605511855.6,286047000.6,N
1605511875.5,286047000.2,N
1605511895.3,286047002.7,N
1605511915.2,286047000.0,N
1605511935.9,286047000.8,N
1605511955.7,286047000.3,N
1605511975.6,286047000.9,N
1605511995.4,286047002.7,N
1605512015.2,286047001.6,N
1605512035.1,286047005.4,Y
1605512036.0,286047005.4,P
1605512055.8,286047003.1,N
1605512075.7,286047003.2,N
1605512095.5,286047002.9,N
1605512115.3,286047004.2,Y
1605512135.2,286046996.9,P
1605512155.0,286046997.1,N
1605512155.9,286046997.1,N
1605512175.7,286046996.8,N
1605512195.6,286046997.3,N
1605512215.4,286046995.1,N
1605512235.3,286046995.1,N
1605512255.1,286046995.7,N
1605512256.0,286046995.7,N
1605512275.8,286046995.4,N
1605512295.7,286046997.1,N
1605512315.5,286046996.6,N
1605512335.3,286046998.4,N
1605512355.2,286046999.6,N
1605512375.0,286046996.7,N
1605512375.9,286046996.7,N
1605512395.8,286046997.2,N
1605512415.6,286046997.8,N
1605512435.4,286046999.0,N
1605512455.3,286046998.4,N
1605512475.1,286046998.9,N
1605512495.9,286046998.6,N
1605512515.7,286046997.0,N
1605512535.5,286046997.3,N
1605512555.4,286046995.3,N
1605512575.2,286046996.1,N
1605512595.0,286046997.9,N
1605512595.9,286046997.9,N
1605512615.8,286046994.9,Y
1605512635.6,286046999.6,P
1605512655.5,286046998.9,N
1605512675.3,286046999.3,N
1605512695.1,286046999.5,N
1605512715.9,286046997.6,N
1605512735.7,286046997.7,N
1605512755.5,286046999.4,N
1605512775.4,286046997.2,Y
1605512795.2,286046999.4,P
1605512815.1,286047001.0,N
1605512816.0,286047001.0,N
1605512835.8,286046998.3,N
1605512855.6,286047000.3,N
1605512875.5,286046999.8,N
1605512895.3,286047004.0,Y
1605512915.2,286047005.0,P
1605512935.9,286047007.1,N
1605512955.7,286047004.6,N
1605512975.6,286047004.9,N
1605512995.4,286047005.1,N
1605513015.2,286047007.2,Y
1605513035.1,286047002.7,P
1605513036.0,286047002.7,P
1605513055.8,286047002.3,N
1605513075.7,286047002.8,Y
1605513095.5,286046999.1,P
1605513115.3,286046995.1,N
1605513135.2,286046996.3,N
1605513155.0,286046995.4,N
1605513155.9,286046995.4,N
1605513175.7,286046993.4,N
1605513195.6,286046994.8,N
1605513215.4,286046994.7,N
1605513235.3,286046991.8,N
1605513255.1,286046994.4,N
1605513256.0,286046994.4,N
1605513275.8,286046992.4,N
1605513295.7,286046992.1,N
1605513315.5,286046994.8,N
1605513335.3,286046994.4,N
1605513355.2,286046994.2,N
1605513375.0,286046994.4,N
1605513375.9,286046994.4,N
1605513395.8,286046992.9,N
1605513415.6,286046990.3,Y
1605513435.4,286046997.2,P
1605513455.3,286046997.9,N
1605513475.1,286046995.3,P
1605513495.9,286046997.4,N
1605513515.7,286046995.2,Y
1605513535.5,286047000.8,P
1605513555.4,286046999.8,N
1605513575.2,286047000.4,N
1605513595.0,286047000.3,N
1605513595.9,286047000.3,N
